This demonstration page uses our WeatherBlox Daily Observations layout. Learn more.

Left ArrowRight Arrow

Hourly Observations for October 26, 2021

Temp ( °F °C ) Dew Point ( °F °C ) Humidity (%) Winds ( mph kmh ) Pressure ( in mb ) Visibility ( mi km ) Precip ( " mm )
12:53 am 00:53 Clear 60 15.6 52 11.1 75 75 NW 15 24 29.87 1011 10 16 0.00 0.00
1:14 am 01:14 Mostly Cloudy 60 15.6 51 10.6 72 72 NW 15 24 29.88 1012 10 16 0.00 0.00
1:53 am 01:53 Cloudy 58 14.4 47 8.3 67 67 N 10 17 29.88 1012 10 16 0.00 0.00
2:53 am 02:53 Cloudy 56 13.3 46 7.8 70 70 NW 12 19 29.88 1012 10 16 0.00 0.00
3:53 am 03:53 Cloudy 56 13.3 45 7.2 67 67 NNW 14 22 29.88 1012 10 16 0.00 0.00
4:53 am 04:53 Cloudy 55 12.8 45 7.2 69 69 NNW 9 15 29.91 1013 10 16 0.00 0.00
5:53 am 05:53 Cloudy 54 12.2 45 7.2 72 72 N 5 7 29.91 1013 10 16 0.00 0.00
6:53 am 06:53 Cloudy 54 12.2 45 7.2 72 72 N 8 13 29.92 1013 10 16 0.00 0.00
7:53 am 07:53 Cloudy 54 12.2 45 7.2 72 72 NNW 9 15 29.93 1014 10 16 0.00 0.00
8:53 am 08:53 Cloudy 54 12.2 45 7.2 72 72 N 10 17 29.93 1014 10 16 0.00 0.00
9:53 am 09:53 Partly Cloudy 56 13.3 46 7.8 70 70 NNW 10 17 29.95 1014 10 16 0.00 0.00
10:53 am 10:53 Mostly Sunny 57 13.9 46 7.8 67 67 NW 17 28 29.95 1014 10 16 0.00 0.00
11:53 am 11:53 Sunny 60 15.6 46 7.8 60 60 NNW 13 20 29.95 1014 10 16 0.00 0.00
12:53 pm 12:53 Sunny 62 16.7 47 8.3 58 58 NW 13 20 29.94 1014 10 16 0.00 0.00
1:53 pm 13:53 Sunny 63 17.2 46 7.8 54 54 WNW 12 19 29.90 1013 10 16 0.00 0.00
2:53 pm 14:53 Sunny 65 18.3 47 8.3 52 52 NW 9 15 29.88 1012 10 16 0.00 0.00
3:53 pm 15:53 Sunny 65 18.3 46 7.8 51 51 NNW 12 19 29.88 1012 10 16 0.00 0.00
4:53 pm 16:53 Sunny 64 17.8 46 7.8 52 52 WNW 12 19 29.89 1012 10 16 0.00 0.00
5:53 pm 17:53 Sunny 62 16.7 46 7.8 56 56 NW 8 13 29.90 1013 10 16 0.00 0.00
6:53 pm 18:53 Clear 57 13.9 45 7.2 64 64 N 5 7 29.90 1013 10 16 0.00 0.00
7:53 pm 19:53 Clear 55 12.8 45 7.2 69 69 N 5 7 29.91 1013 10 16 0.00 0.00
8:53 pm 20:53 Clear 53 11.7 45 7.2 74 74 N 5 7 29.93 1013 10 16 0.00 0.00
9:53 pm 21:53 Clear 52 11.1 44 6.7 75 75 N 6 9 29.92 1013 10 16 0.00 0.00
10:53 pm 22:53 Clear 52 11.1 44 6.7 75 75 N 7 11 29.93 1013 10 16 0.00 0.00
11:53 pm 23:53 Clear 51 10.6 44 6.7 77 77 N 7 11 29.92 1013 10 16 0.00 0.00

Powered by AerisWeather